www.pogodaiklimat.ru

Погода и климат >> Архив погоды >> Мексика >> Сьюдад-Конститусьон


ПОГОДА в Сьюдад-Конститусьоне

  • Прогноз погоды в Сьюдад-Конститусьоне
  • Монитор погоды в Сьюдад-Конститусьоне

АРХИВ ПОГОДЫ в Сьюдад-Конститусьоне

Время (UTC), дата Ветер
(напр.,м/с)
 
Видим.   Явления Облачность Т
(С)
Тd
(С)
f
(%)
Тe
(С)
Тes
(С)
Комфортность P
(гПа)
Po
(гПа)
Тmin
(С)
Tmax
(С)
R
(мм)
R24
(мм)
S
(см)
21 16.07 З 3 10 км мгла {туман} 6/0 2000 м
[Ac trans]
+35.2 +18.4 37 +39 +50 очень
душно
1010.6 1005.0
00 17.07 З 4 10 км мгла {туман} 1/0 2000 м
[Ac trans]
+33.4 +18.7 42 +38 +41 очень
душно
1009.4 1003.9 +18.6 +35.8
03 17.07 З 3 5000 м 1/0 2000 м
[Ac trans]
+25.6 +18.0 63 +30 +30 душно 1011.6 1006.2
06 17.07 З 2 5000 м 3/0 2000 м
[Ac trans]
+22.0 +19.8 87 +28 +28 душно 1013.4 1007.9 +18.6 +35.8
09 17.07 ЮЗ 1 5000 м 5/0 2000 м
[Ac trans]
+21.6 +19.7 89 +27 +27 душно 1012.6 1007.1
12 17.07 ЮЗ 2 5000 м ясно +20.2 +19.6 96 +25 +25 комфорт 1012.4 1006.9 +20.0 +35.8
15 17.07 штиль 0 10 км мгла {туман} 6/0 2000 м
[Ac und]
+22.8 +20.6 87 +30 +34 очень
душно
1015.5 1009.9
18 17.07 ЮЗ 2 10 км мгла {туман} 6/0 2000 м
[Ac und]
+29.6 +19.1 53 +35 +46 очень
душно
1015.0 1009.4 +19.8 +30.0
21 17.07 ЮЗ 2 10 км мгла {туман} 1/0 2000 м
[Ac trans]
+36.2 +17.7 34 +40 +58 опасность
солнечного
удара
1013.1 1007.6
00 18.07 З 6 10 км мгла {туман} ясно +33.4 +18.7 42 +38 +40 очень
душно
1011.5 1006.0 +19.8 +37.0
03 18.07 З 5 5000 м ясно +25.2 +19.3 70 +30 +30 душно 1013.0 1007.6
06 18.07 З 3 5000 м ясно +22.4 +19.9 86 +29 +29 очень
душно
1015.0 1009.5 +19.8 +37.0
09 18.07 З 2 5000 м ясно +21.0 +20.1 95 +27 +27 душно 1013.8 1008.3
12 18.07 З 2 5000 м 3/3 840 м
[St]
+20.8 +19.9 95 +26 +26 душно 1013.4 1007.8 +20.0 +37.0
15 18.07 СЗ 3 10 км мгла {туман} ясно +23.4 +20.3 83 +31 +35 очень
душно
1014.4 1008.8
18 18.07 З 4 10 км мгла {туман} 3/0
[Cs]
+31.0 +17.9 46 +35 +48 очень
душно
1013.9 1008.3 +19.2 +31.4
21 18.07 З 5 10 км мгла {туман} 1/0
[Cs]
+34.2 +16.2 34 +37 +47 очень
душно
1012.0 1006.5
00 19.07 З 7 10 км мгла {туман} 1/0
[Cs]
+31.2 +15.8 39 +34 +35 душно 1010.6 1005.1 +19.2 +35.0
03 19.07 З 6 5000 м 3/0
[Cs]
+24.0 +19.0 74 +29 +29 душно 1010.6 1005.1
06 19.07 З 4 5000 м 3/0
[Cs]
+21.8 +20.4 92 +28 +28 душно 1012.8 1007.3 +19.2 +35.0
15 19.07 З 3 8000 м мгла {туман} 5/5 840 м
[St]
+22.2 +19.7 86 +28 +30 душно 1013.0 1007.4
18 19.07 З 3 10 км мгла {туман} 5/0
[Cs]
+29.0 +19.5 57 +35 +50 очень
душно
1012.5 1006.9 +19.4 +29.4
21 19.07 З 5 10 км мгла {туман} ясно +34.2 +19.8 43 +40 +50 очень
душно
1009.9 1004.4
00 20.07 З 7 10 км мгла {туман} 1/1 1000 м
[Cu hum]
+31.4 +16.9 42 +35 +36 очень
душно
1009.2 1003.7 +19.4 +34.5
15 20.07 З 2 8000 м в посл. час дождь {туман} 9/0 2000 м
[Ac und]
+21.6 +20.0 91 +27 +29 душно 1012.4 1006.8 0.0
18 20.07 ЮЗ 2 10 км мгла {дождь, туман} 9/0 2000 м
[Ac und]
+25.2 +21.3 79 +32 +39 очень
душно
1012.1 1006.5 +20.2 +25.3 0.2
21 20.07 З 4 10 км мгла {туман} 6/1 1000 м
[Cu hum Ac trans]
+31.8 +18.9 46 +37 +45 очень
душно
1010.3 1004.8
00 21.07 З 5 10 км мгла {туман} 8/0 2000 м
[Ac und]
+30.4 +16.8 44 +34 +35 очень
душно
1008.9 1003.4 +20.2 +33.2
09 21.07 ЮЗ 1 5000 м ясно +20.6 +18.4 87 +26 +26 душно 1011.0 1005.5
12 21.07 В 1 5000 м ясно +19.4 +17.8 90 +23 +23 комфорт 1011.8 1006.2 +19.0 +33.2
15 21.07 В 1 8000 м мгла {туман} 6/0
[Cs]
+23.9 +19.4 76 +29 +34 душно 1013.0 1007.4
18 21.07 С 1 9000 м мгла {туман} 4/0 2000 м
[Ac und]
+31.8 +17.8 43 +36 +52 опасность
солнечного
удара
1012.5 1006.9 +19.0 +32.0
21 21.07 В 2 10 км мгла {туман} 4/1 1000 м
[Cu hum Cs]
+38.0 +20.2 36 +44 +60 опасность
перегрева
1011.5 1005.9
00 22.07 ЮЗ 5 6000 м пыльный позёмок {туман} 3/1 1000 м
[Cu hum Cs]
+33.4 +18.3 41 +38 +40 очень
душно
1010.7 1005.2 +19.0 +38.4
03 22.07 З 4 5000 м 6/0
[Cs]
+28.8 +18.2 53 +34 +34 очень
душно
1011.9 1006.5
06 22.07 ЮЗ 1 5000 м 4/0
[Cs]
+24.2 +19.9 77 +30 +30 очень
душно
1014.0 1008.8 +19.0 +38.4
09 22.07 СЗ 2 5000 м ясно +23.0 +19.9 83 +30 +30 очень
душно
1013.2 1007.7
12 22.07 СЗ 2 5000 м 4/0
[Cs]
+23.0 +18.9 78 +29 +29 очень
душно
1012.5 1006.9 +22.0 +38.4
15 22.07 СВ 1 10 км мгла {туман} 9/0 2000 м
[Ac und]
+26.0 +16.2 55 +29 +32 душно 1014.1 1008.5
18 22.07 СЗ 2 10 км мгла {туман} 6/0 2000 м
[Ac trans Cs]
+33.2 +19.2 44 +39 +53 опасность
солнечного
удара
1013.4 1007.9 +21.8 +33.6
21 22.07 ЮЗ 2 10 км мгла {туман} 5/5 1000 м
[Cu med, cong]
+38.4 +19.6 34 +44 +53 опасность
перегрева
1011.0 1005.5
00 23.07 ЮЗ 4 10 км мгла {туман} 5/1 1000 м
[Cu hum Ac und]
+33.0 +20.1 47 +39 +41 очень
душно
1011.1 1005.7 +21.8 +39.6
03 23.07 З 4 5000 м 6/0 2000 м
[Ac und]
+27.4 +19.0 60 +33 +33 очень
душно
1012.5 1007.0
06 23.07 З 2 5000 м 6/0 2000 м
[Ac und]
+25.6 +20.1 72 +32 +32 очень
душно
1014.5 1009.0 +21.8 +39.6
09 23.07 З 1 5000 м 4/0 2000 м
[Ac und]
+25.0 +19.4 71 +30 +30 душно 1014.4 1008.9
12 23.07 С 2 5000 м 3/0 2000 м
[Ac und]
+23.8 +19.1 75 +29 +29 душно 1013.3 1007.7 +22.0 +39.6
15 23.07 СВ 1 10 км мгла {туман} 4/0 2000 м
[Ac trans]
+28.0 +19.7 61 +34 +39 очень
душно
1014.6 1009.0

 

Местоположение метеостанции Сьюдад-Конститусьон (Мексика): широта 24.95 долгота -111.70 высота над уровнем моря 48 м.

В архиве по умолчанию представлена погода в Сьюдад-Конститусьоне за последнюю неделю. Архивные данные за месяц целиком и за предыдущие месяцы, начиная с января 2011 года, Вы можете получить, выбрав интересующий диапазон дат из раскрывающегося списка и нажав кнопку "Ввод!".


*Определитесь, кто Вы:
робот инопланетянин человек

Внимание! Время в таблицах - всемирное. Для получения местного времени необходимо прибавить поправку, которая равна -6 ч.

Смотрите также архив погоды в соседних городах и на ближайших метеорологических станциях:

Погода в Лорето (Мексика) (126 км)
Погода в Ла-Пасе (Мексика) (166 км)
Погода в Санта-Розалии (Мексика) (265 км)
Погода в Сьюдад-Обрегоне (Мексика) (329 км)
Погода в Гуаймасе (Мексика) (340 км)
Погода в Эмпальме (Мексика) (348 км)
Погода в Чойсе (Мексика) (402 км)
Погода в Кульякане (Мексика) (434 км)
Погода в Эрмосильо (Мексика) (465 км)
Погода в Эрмосильо Магна (Мексика) (465 км)

Пояснения к столбцам:

Ветер - указаны скорость ветра в м/с - средняя за 10 мин, порывы в срок и между сроками (в фигурных скобках) и направление, откуда дует ветер: С - северный, СВ - северо-восточный, В - восточный, ЮВ - юго-восточный, Ю - южный, ЮЗ - юго-западный, З - западный, СЗ - северо-западный.
Видимость - горизонтальная дальность видимости в метрах или километрах. При видимости от 1 до 10 км при отсутствии осадков обычно наблюдается дымка, при ухудшении видимости до 1 км и менее - туман. В сухую погоду видимость может ухудшаться дымом, пылью или мглою.
Явления - указаны атмосферные явления, наблюдавшиеся в срок или в последний час перед сроком; фигурными скобками обозначены явления, наблюдавшиеся между сроками (за 1-3 часа до срока); квадратными скобками обозначены град или гололедные отложения с указанием их диаметра в мм.
Облачность - указаны через наклонную черту общая и нижняя облачность в баллах и высота нижней границы облаков в метрах; квадратными скобками обозначены формы облаков: Ci - перистые, Cs - перисто-слоистые, Cc - перисто-кучевые, Ac - высококучевые, As - высокослоистые, Sc - слоисто-кучевые, Ns - слоисто-дождевые, Cu - кучевые, Cb - кучево-дождевые. Подробнее классификацию облаков см. в Атласе облаков (PDF).
T - Температура воздуха - температура, измеренная на высоте 2 м над землей.
Td - Температура точки росы - температура, при понижении до которой содержащийся в воздухе водяной пар достигнет насыщения.
f - Относительная влажность воздуха - влажноcть воздуха, измеренная на высоте 2 м над землей.
Te - Эффективная температура - температура, которую ощущает одетый по сезону человек в тени. Характеристика душности погоды. При расчете учитывается влияние влажности воздуха и скорости ветра на теплоощущения человека.
Tes - Эффективная температура на солнце - температура, которую ощущает человек, с поправкой на солнечный нагрев. Характеристика знойности погоды. Зависит от высоты солнца над горизонтом, облачности и скорости ветра. Ночью, в пасмурную погоду, а также при ветре 12 м/с и более поправка равна нулю.
P - Атмосферное давление - приведенное к уровню моря атмосферное давление.
Po - Атмосферное давление - измеренное на уровне метеостанции атмосферное давление.
Tmin - Минимальная температура - минимум температуры воздуха на высоте 2 м над землей.
Tmax - Максимальная температура - максимум температуры воздуха на высоте 2 м над землей.
R - Количество осадков - Количество выпавших осадков за период времени, мм. При наведении курсора мыши на число - период времени, за который выпало указанное количество осадков.
R24 - Количество осадков - Количество выпавших осадков за 24 часа, мм.
S - Снежный покров - Высота снежного покрова, см. При наведении курсора мыши на число - состояние снежного покрова и степень покрытия местности в баллах.